Location: Newark
(51.3318°N, 0.0053°E)
Time: 01:05:46
(UTC+00:00)

NOAA 18 - Visible Passes

Search period start: 29 June 2022 00:00
Search period end: 09 July 2022 00:00
Orbit: 840 x 859 km, 98.9° (Epoch: 28 June)

Date Brightness Start Highest point End Pass type
(mag) Time Alt. Az. Time Alt. Az. Time Alt. Az.
29 Jun 5.3 21:21:36 10° SSE 21:27:08 88° ENE 21:32:43 10° NNW visible
29 Jun 7.4 23:05:03 10° SW 23:08:34 17° W 23:12:07 10° NW visible
30 Jun 5.3 21:09:36 10° SSE 21:15:06 74° ENE 21:20:39 10° NNW visible
30 Jun 7.1 22:52:15 10° SW 22:56:21 21° W 23:00:29 10° NW visible
01 Jul 5.5 20:57:40 10° SSE 21:03:05 60° ENE 21:08:34 10° N visible
01 Jul 6.9 22:39:37 10° SSW 22:44:10 26° W 22:48:45 10° NW visible
02 Jul 6.6 22:27:07 10° SSW 22:31:59 31° W 22:36:55 10° NNW visible
03 Jul 6.3 22:14:43 10° SSW 22:19:50 39° W 22:25:01 10° NNW visible
04 Jul 6.0 22:02:25 10° S 22:07:43 47° W 22:13:05 10° NNW visible
05 Jul 5.7 21:50:10 10° S 21:55:36 58° WSW 22:01:07 10° NNW visible
06 Jul 5.4 21:38:00 10° S 21:43:32 72° WSW 21:49:06 10° NNW visible
06 Jul 7.5 23:22:50 10° WSW 23:25:12 13° W 23:27:35 10° WNW visible
07 Jul 5.3 21:25:55 10° SSE 21:31:28 87° WSW 21:37:04 10° NNW visible
07 Jul 7.4 23:09:39 10° WSW 23:12:57 16° W 23:16:18 10° NW visible
08 Jul 5.3 21:13:54 10° SSE 21:19:26 78° ENE 21:25:00 10° NNW visible
08 Jul 7.2 22:56:46 10° SW 23:00:44 20° W 23:04:43 10° NW visible
